| time (UTC) | temp F | wind direction | speed MPH | gust MPH | rain 1hr in | rain 24hr in | rain mn in | humidity % | barometer mb |
| 20260505041128 | 49 | 16 | 13.0 | 18.0 | 0.00 | 0.00 | 0.00 | 97 | 1010.9 |
| 20260505040629 | 49 | 13 | 11.0 | 15.0 | 0.00 | 0.00 | 0.00 | 97 | 1010.9 |
| 20260505040129 | 50 | 20 | 11.0 | 15.0 | 0.00 | 0.00 | 0.00 | 97 | 1011.0 |
| 20260505035629 | 50 | 2 | 12.0 | 16.0 | 0.00 | 0.00 | 0.00 | 96 | 1010.9 |
| 20260505035129 | 50 | 12 | 12.0 | 16.0 | 0.00 | 0.00 | 0.00 | 96 | 1010.8 |
| 20260505034914 | 50 | 11 | 12.0 | 16.0 | 0.00 | 0.00 | 0.00 | 97 | 1010.9 |
| 20260505034129 | 50 | 7 | 11.0 | 15.0 | 0.00 | 0.00 | 0.00 | 97 | 1010.9 |
| 20260505033628 | 50 | 14 | 12.0 | 18.0 | 0.00 | 0.00 | 0.00 | 97 | 1011.0 |
| 20260505033404 | 50 | 350 | 13.0 | 18.0 | 0.00 | 0.00 | 0.00 | 97 | 1011.0 |
| 20260505032629 | 50 | 12 | 14.0 | 20.0 | 0.00 | 0.00 | 0.00 | 97 | 1011.1 |
| 20260505032129 | 50 | 5 | 14.0 | 20.0 | 0.00 | 0.00 | 0.00 | 96 | 1011.2 |
| 20260505031629 | 50 | 2 | 13.0 | 19.0 | 0.00 | 0.00 | 0.00 | 97 | 1010.9 |
| 20260505031129 | 50 | 1 | 11.0 | 16.0 | 0.00 | 0.00 | 0.00 | 96 | 1010.9 |
| 20260505030627 | 50 | 357 | 11.0 | 17.0 | 0.00 | 0.00 | 0.00 | 96 | 1011.0 |
| 20260505030133 | 50 | 3 | 11.0 | 17.0 | 0.00 | 0.00 | 0.00 | 96 | 1010.9 |
| 20260505025632 | 50 | 10 | 12.0 | 16.0 | 0.00 | 0.00 | 0.00 | 95 | 1010.9 |
| 20260505025128 | 50 | 7 | 11.0 | 15.0 | 0.00 | 0.00 | 0.00 | 95 | 1011.0 |
| 20260505024627 | 50 | 11 | 11.0 | 15.0 | 0.00 | 0.00 | 0.00 | 95 | 1011.1 |
| 20260505024407 | 50 | 0 | 11.0 | 17.0 | 0.00 | 0.00 | 0.00 | 95 | 1011.1 |
| 20260505023624 | 50 | 6 | 11.0 | 17.0 | 0.00 | 0.00 | 0.00 | 95 | 1011.1 |
| 20260505023356 | 50 | 8 | 12.0 | 16.0 | 0.00 | 0.00 | 0.00 | 95 | 1011.2 |
| 20260505022625 | 50 | 7 | 12.0 | 17.0 | 0.00 | 0.00 | 0.00 | 94 | 1011.2 |
| 20260505022355 | 50 | 3 | 13.0 | 18.0 | 0.00 | 0.00 | 0.00 | 94 | 1011.2 |
| 20260505021621 | 50 | 9 | 13.0 | 21.0 | 0.00 | 0.00 | 0.00 | 94 | 1011.2 |
| 20260505021122 | 50 | 1 | 14.0 | 21.0 | 0.00 | 0.00 | 0.00 | 94 | 1011.0 |
| 20260505020852 | 50 | 4 | 14.0 | 21.0 | 0.00 | 0.00 | 0.00 | 94 | 1011.0 |
| 20260505020119 | 50 | 354 | 13.0 | 19.0 | 0.00 | 0.00 | 0.00 | 94 | 1011.1 |
| 20260505015619 | 50 | 359 | 13.0 | 18.0 | 0.00 | 0.00 | 0.00 | 94 | 1010.9 |
| 20260505015119 | 50 | 13 | 12.0 | 17.0 | 0.00 | 0.00 | 0.00 | 95 | 1011.1 |
| 20260505014619 | 51 | 359 | 13.0 | 19.0 | 0.00 | 0.00 | 0.00 | 95 | 1011.3 |
| 20260505014119 | 51 | 3 | 14.0 | 20.0 | 0.00 | 0.00 | 0.00 | 94 | 1011.2 |
| 20260505013619 | 51 | 6 | 14.0 | 21.0 | 0.00 | 0.00 | 0.00 | 93 | 1011.3 |
| 20260505013119 | 51 | 14 | 14.0 | 21.0 | 0.00 | 0.00 | 0.00 | 94 | 1011.2 |
| 20260505012618 | 51 | 5 | 12.0 | 18.0 | 0.00 | 0.00 | 0.00 | 95 | 1011.4 |
| 20260505012402 | 51 | 1 | 12.0 | 19.0 | 0.00 | 0.00 | 0.00 | 94 | 1011.4 |
| 20260505011619 | 51 | 338 | 12.0 | 19.0 | 0.00 | 0.00 | 0.00 | 94 | 1011.3 |
| 20260505011119 | 51 | 328 | 11.0 | 18.0 | 0.00 | 0.00 | 0.00 | 94 | 1011.3 |
| 20260505010619 | 51 | 2 | 11.0 | 17.0 | 0.00 | 0.00 | 0.00 | 94 | 1011.5 |
| 20260505010123 | 51 | 10 | 13.0 | 20.0 | 0.00 | 0.00 | 0.00 | 94 | 1011.4 |
| 20260505005620 | 51 | 351 | 14.0 | 20.0 | 0.00 | 0.00 | 0.00 | 94 | 1011.6 |
| 20260505005119 | 51 | 5 | 13.0 | 18.0 | 0.00 | 0.00 | 0.00 | 94 | 1011.5 |
| 20260505004619 | 51 | 351 | 13.0 | 20.0 | 0.00 | 0.00 | 0.00 | 94 | 1011.7 |
| 20260505004119 | 51 | 341 | 13.0 | 20.0 | 0.00 | 0.00 | 0.00 | 94 | 1011.6 |
| 20260505003620 | 51 | 3 | 11.0 | 17.0 | 0.00 | 0.00 | 0.00 | 94 | 1011.6 |
| 20260505003120 | 52 | 327 | 10.0 | 15.0 | 0.00 | 0.00 | 0.00 | 94 | 1011.5 |
| 20260505002632 | 52 | 10 | 10.0 | 20.0 | 0.00 | 0.00 | 0.00 | 95 | 1011.8 |
| 20260505002628 | 52 | 27 | 10.0 | 15.0 | 0.00 | 0.00 | 0.00 | 94 | 1011.7 |
| 20260505001620 | 52 | 2 | 11.0 | 20.0 | 0.00 | 0.00 | 0.00 | 94 | 1011.8 |
| 20260505001119 | 52 | 23 | 11.0 | 20.0 | 0.00 | 0.00 | 0.00 | 94 | 1011.7 |
| 20260505000620 | 52 | 347 | 10.0 | 25.0 | 0.00 | 0.00 | 0.00 | 94 | 1011.7 |
| 20260505000120 | 52 | 355 | 13.0 | 25.0 | 0.00 | 0.00 | 0.00 | 94 | 1011.8 |
| 20260504235617 | 53 | 17 | 13.0 | 25.0 | 0.00 | 0.00 | 0.00 | 92 | 1011.6 |
| 20260504235115 | 53 | 356 | 12.0 | 21.0 | 0.00 | 0.00 | 0.00 | 95 | 1011.8 |
| 20260504234615 | 53 | 3 | 14.0 | 21.0 | 0.00 | 0.00 | 0.00 | 94 | 1011.7 |
| 20260504234115 | 53 | 4 | 11.0 | 17.0 | 0.00 | 0.00 | 0.00 | 94 | 1011.9 |
| 20260504233614 | 53 | 357 | 10.0 | 16.0 | 0.00 | 0.00 | 0.00 | 94 | 1012.0 |
| 20260504233115 | 53 | 346 | 10.0 | 15.0 | 0.00 | 0.00 | 0.00 | 94 | 1012.0 |
| 20260504232615 | 53 | 357 | 11.0 | 19.0 | 0.00 | 0.00 | 0.00 | 94 | 1012.1 |
| 20260504232114 | 53 | 359 | 11.0 | 19.0 | 0.00 | 0.00 | 0.00 | 93 | 1012.1 |
| 20260504231615 | 53 | 345 | 10.0 | 17.0 | 0.00 | 0.00 | 0.00 | 93 | 1012.2 |
| 20260504231115 | 53 | 3 | 10.0 | 17.0 | 0.00 | 0.00 | 0.00 | 94 | 1012.1 |
| 20260504230615 | 53 | 348 | 10.0 | 17.0 | 0.00 | 0.00 | 0.00 | 94 | 1012.1 |
| 20260504230115 | 53 | 10 | 9.0 | 18.0 | 0.00 | 0.00 | 0.00 | 94 | 1012.2 |
| 20260504225615 | 53 | 353 | 9.0 | 18.0 | 0.00 | 0.00 | 0.00 | 94 | 1012.1 |
| 20260504225115 | 53 | 359 | 10.0 | 18.0 | 0.00 | 0.00 | 0.00 | 94 | 1012.0 |
| 20260504224613 | 53 | 351 | 10.0 | 18.0 | 0.00 | 0.00 | 0.00 | 93 | 1012.2 |
| 20260504224113 | 54 | 324 | 10.0 | 17.0 | 0.00 | 0.00 | 0.00 | 94 | 1012.1 |
| 20260504223612 | 54 | 343 | 10.0 | 17.0 | 0.00 | 0.00 | 0.00 | 93 | 1012.2 |
| 20260504223113 | 54 | 7 | 11.0 | 19.0 | 0.00 | 0.00 | 0.00 | 94 | 1012.1 |
| 20260504222613 | 54 | 317 | 11.0 | 19.0 | 0.00 | 0.00 | 0.00 | 94 | 1012.1 |
| 20260504222112 | 54 | 303 | 13.0 | 20.0 | 0.00 | 0.00 | 0.00 | 94 | 1012.2 |
| 20260504221613 | 54 | 9 | 14.0 | 20.0 | 0.00 | 0.00 | 0.00 | 93 | 1012.1 |
| 20260504221113 | 54 | 0 | 14.0 | 20.0 | 0.00 | 0.00 | 0.00 | 93 | 1012.1 |
| 20260504220614 | 54 | 4 | 13.0 | 19.0 | 0.00 | 0.00 | 0.00 | 93 | 1012.1 |
| 20260504220113 | 54 | 3 | 12.0 | 17.0 | 0.00 | 0.00 | 0.00 | 93 | 1012.3 |
| 20260504215613 | 54 | 16 | 12.0 | 17.0 | 0.00 | 0.00 | 0.00 | 93 | 1012.3 |
| 20260504215114 | 54 | 9 | 12.0 | 18.0 | 0.00 | 0.00 | 0.00 | 92 | 1012.3 |
| 20260504214613 | 54 | 6 | 12.0 | 18.0 | 0.00 | 0.00 | 0.00 | 93 | 1012.4 |
| 20260504214344 | 54 | 1 | 12.0 | 18.0 | 0.00 | 0.00 | 0.00 | 93 | 1012.5 |
| 20260504213610 | 54 | 30 | 11.0 | 18.0 | 0.00 | 0.00 | 0.00 | 93 | 1012.4 |
| 20260504213110 | 55 | 4 | 11.0 | 20.0 | 0.00 | 0.00 | 0.00 | 93 | 1012.5 |
| 20260504212610 | 55 | 5 | 12.0 | 20.0 | 0.00 | 0.00 | 0.00 | 92 | 1012.4 |
| 20260504212110 | 55 | 2 | 12.0 | 19.0 | 0.00 | 0.00 | 0.00 | 93 | 1012.6 |
| 20260504211612 | 55 | 5 | 11.0 | 19.0 | 0.00 | 0.00 | 0.00 | 92 | 1012.5 |
| 20260504211348 | 55 | 346 | 10.0 | 14.0 | 0.00 | 0.00 | 0.00 | 93 | 1012.5 |
| 20260504210611 | 55 | 351 | 10.0 | 16.0 | 0.00 | 0.00 | 0.00 | 94 | 1012.6 |
| 20260504210112 | 55 | 342 | 11.0 | 16.0 | 0.00 | 0.00 | 0.00 | 94 | 1012.7 |
| 20260504205611 | 55 | 3 | 11.0 | 17.0 | 0.00 | 0.00 | 0.00 | 94 | 1012.6 |
| 20260504205115 | 55 | 1 | 11.0 | 18.0 | 0.00 | 0.00 | 0.00 | 94 | 1012.6 |
| 20260504204847 | 55 | 0 | 11.0 | 18.0 | 0.00 | 0.00 | 0.00 | 94 | 1012.5 |
| 20260504204111 | 55 | 355 | 11.0 | 17.0 | 0.00 | 0.00 | 0.00 | 94 | 1012.6 |
| 20260504203611 | 55 | 2 | 11.0 | 16.0 | 0.00 | 0.00 | 0.00 | 94 | 1012.6 |
| 20260504203108 | 55 | 8 | 11.0 | 17.0 | 0.00 | 0.00 | 0.00 | 94 | 1012.6 |
| 20260504202609 | 55 | 1 | 11.0 | 17.0 | 0.00 | 0.00 | 0.00 | 93 | 1012.6 |
| 20260504202109 | 55 | 353 | 10.0 | 14.0 | 0.00 | 0.00 | 0.00 | 94 | 1012.5 |
| 20260504201609 | 55 | 5 | 10.0 | 17.0 | 0.00 | 0.00 | 0.00 | 93 | 1012.4 |
| 20260504201345 | 55 | 7 | 11.0 | 17.0 | 0.00 | 0.00 | 0.00 | 93 | 1012.4 |
| 20260504200609 | 56 | 11 | 11.0 | 17.0 | 0.00 | 0.00 | 0.00 | 92 | 1012.2 |
| 20260504200343 | 56 | 14 | 10.0 | 16.0 | 0.00 | 0.00 | 0.00 | 92 | 1012.3 |
| 20260504195609 | 56 | 16 | 10.0 | 15.0 | 0.00 | 0.00 | 0.00 | 93 | 1012.3 |
| 20260504195110 | 56 | 13 | 10.0 | 15.0 | 0.00 | 0.00 | 0.00 | 93 | 1012.3 |
| 20260504194609 | 56 | 1 | 11.0 | 18.0 | 0.00 | 0.00 | 0.00 | 93 | 1012.2 |
| 20260504194109 | 56 | 2 | 12.0 | 18.0 | 0.00 | 0.00 | 0.00 | 93 | 1012.2 |
| 20260504193609 | 56 | 12 | 13.0 | 16.0 | 0.00 | 0.00 | 0.00 | 93 | 1012.2 |
| 20260504193106 | 56 | 2 | 13.0 | 16.0 | 0.00 | 0.00 | 0.00 | 92 | 1012.2 |
| 20260504192611 | 56 | 3 | 12.0 | 16.0 | 0.00 | 0.00 | 0.00 | 92 | 1012.0 |
| 20260504192107 | 56 | 0 | 11.0 | 16.0 | 0.00 | 0.00 | 0.00 | 93 | 1012.0 |
| 20260504191608 | 56 | 6 | 12.0 | 19.0 | 0.00 | 0.00 | 0.00 | 93 | 1012.1 |
| 20260504191107 | 56 | 8 | 13.0 | 19.0 | 0.00 | 0.00 | 0.00 | 93 | 1012.1 |
| 20260504190608 | 56 | 10 | 13.0 | 17.0 | 0.00 | 0.00 | 0.00 | 92 | 1011.9 |
| 20260504190107 | 56 | 6 | 13.0 | 18.0 | 0.00 | 0.00 | 0.00 | 92 | 1011.9 |
| 20260504185614 | 57 | 359 | 15.0 | 20.0 | 0.00 | 0.00 | 0.00 | 92 | 1011.8 |
| 20260504185610 | 56 | 358 | 15.0 | 20.0 | 0.00 | 0.00 | 0.00 | 91 | 1012.0 |
| 20260504184608 | 57 | 5 | 13.0 | 18.0 | 0.00 | 0.00 | 0.00 | 91 | 1011.8 |
| 20260504184108 | 57 | 1 | 10.0 | 16.0 | 0.00 | 0.00 | 0.00 | 92 | 1011.8 |
| 20260504183602 | 57 | 14 | 11.0 | 17.0 | 0.00 | 0.00 | 0.00 | 93 | 1012.0 |
| 20260504183105 | 57 | 2 | 12.0 | 17.0 | 0.00 | 0.00 | 0.00 | 92 | 1011.9 |
| 20260504182604 | 57 | 16 | 11.0 | 15.0 | 0.00 | 0.00 | 0.00 | 92 | 1011.9 |
| 20260504182104 | 57 | 359 | 12.0 | 19.0 | 0.00 | 0.01 | 0.00 | 92 | 1012.0 |
| 20260504181603 | 58 | 10 | 13.0 | 19.0 | 0.00 | 0.03 | 0.00 | 92 | 1012.0 |
| 20260504181347 | 58 | 6 | 13.0 | 19.0 | 0.00 | 0.03 | 0.00 | 91 | 1011.9 |
| 20260504180603 | 58 | 7 | 13.0 | 19.0 | 0.00 | 0.03 | 0.00 | 91 | 1011.8 |
| 20260504180337 | 58 | 9 | 13.0 | 21.0 | 0.00 | 0.03 | 0.00 | 92 | 1011.7 |
| 20260504175603 | 58 | 11 | 13.0 | 21.0 | 0.00 | 0.03 | 0.00 | 92 | 1011.9 |
| 20260504175102 | 58 | 11 | 13.0 | 19.0 | 0.00 | 0.03 | 0.00 | 91 | 1011.8 |
| 20260504174603 | 59 | 7 | 12.0 | 19.0 | 0.00 | 0.03 | 0.00 | 92 | 1011.8 |
| 20260504174103 | 59 | 6 | 11.0 | 17.0 | 0.00 | 0.03 | 0.00 | 92 | 1011.8 |
| 20260504173848 | 59 | 359 | 10.0 | 15.0 | 0.00 | 0.03 | 0.00 | 90 | 1011.8 |
| 20260504173103 | 59 | 351 | 10.0 | 16.0 | 0.00 | 0.03 | 0.00 | 90 | 1011.8 |
| 20260504172603 | 59 | 358 | 11.0 | 17.0 | 0.00 | 0.03 | 0.00 | 90 | 1011.8 |
| 20260504172103 | 60 | 358 | 10.0 | 17.0 | 0.00 | 0.03 | 0.00 | 89 | 1011.8 |
| 20260504171601 | 60 | 2 | 10.0 | 17.0 | 0.00 | 0.03 | 0.00 | 90 | 1011.9 |
| 20260504171101 | 60 | 5 | 10.0 | 17.0 | 0.00 | 0.03 | 0.00 | 89 | 1011.8 |
| 20260504170856 | 60 | 6 | 13.0 | 19.0 | 0.00 | 0.05 | 0.00 | 89 | 1011.6 |
| 20260504170852 | 60 | 15 | 11.0 | 19.0 | 0.00 | 0.04 | 0.00 | 89 | 1011.8 |
| 20260504151056 | 65 | 3 | 2.0 | 5.0 | 0.00 | 0.07 | 0.00 | 74 | 1011.7 |
| 20260504150556 | 65 | 349 | 2.0 | 5.0 | 0.00 | 0.07 | 0.00 | 74 | 1011.7 |
| 20260504141053 | 64 | 328 | 2.0 | 3.0 | 0.00 | 0.10 | 0.00 | 74 | 1012.2 |
| 20260504140550 | 64 | 19 | 2.0 | 4.0 | 0.00 | 0.10 | 0.00 | 74 | 1012.3 |
| 20260504130545 | 63 | 346 | 1.0 | 4.0 | 0.00 | 0.10 | 0.00 | 84 | 1012.4 |
| 20260504130314 | 62 | 287 | 2.0 | 4.0 | 0.00 | 0.10 | 0.00 | 85 | 1012.4 |
| 20260504110539 | 63 | 339 | 4.0 | 6.0 | 0.00 | 0.17 | 0.00 | 81 | 1012.7 |
| 20260504100538 | 62 | 19 | 1.0 | 4.0 | 0.00 | 0.25 | 0.00 | 83 | 1012.9 |
| 20260504081535 | 58 | 144 | 1.0 | 3.0 | 0.00 | 0.27 | 0.00 | 99 | 1012.6 |
| 20260504081037 | 58 | 0 | 1.0 | 3.0 | 0.00 | 0.27 | 0.00 | 100 | 1012.6 |
| 20260504080534 | 58 | 170 | 1.0 | 3.0 | 0.00 | 0.27 | 0.00 | 99 | 1012.6 |
| 20260504080304 | 57 | 0 | 1.0 | 3.0 | 0.00 | 0.27 | 0.00 | 99 | 1012.5 |
| 20260504050515 | 54 | 136 | 0.0 | 2.0 | 0.00 | 0.27 | 0.00 | 99 | 1010.9 |
| 20260504050014 | 54 | 117 | 1.0 | 2.0 | 0.00 | 0.27 | 0.00 | 99 | 1010.9 |
| 20260504045515 | 53 | 141 | 1.0 | 2.0 | 0.00 | 0.27 | 0.00 | 99 | 1010.9 |